Flag for Israel Weather past 2 weeks in Rishon LeZion, Israel

Now
73 °F

Clear.


Feels Like: 76 °F
Forecast: 65 / 83 °F
Wind: 22 mph from Southeast

Location: Ben Gurion International Airport

Current Time: Mar 27, 2015 at 6:46:00 AM

Latest Report: Mar 27, 2015 at 5:50 AM


Visibility: 10 mi

Pressure: 29.89 "Hg

Humidity: 23%

Dew point: 34 °F

Location of Rishon LeZionLocation

Historic Weather in Rishon LeZion — Graph

°F

Rishon LeZion temperature yesterday

Maximum temperature yesterday: 77 °F (at 12:20 PM)
Minimum temperature yesterday: 50 °F (at 5:50 AM)
Average temperature yesterday: 65 °F

Past Weeks' High & Low Weather Summary

 TemperatureHumidityPressure
High77 °F (Mar 25, 11:50 AM)94% (Mar 12, 6:20 AM)30.18 "Hg (Mar 12, 6:20 AM)
Low48 °F (Mar 23, 5:50 AM)25% (Mar 25, 11:20 AM)29.86 "Hg (Mar 12, 4:20 AM)
Average60 °F64%30.06 "Hg
* Reported Mar 12 4:20 AM — Mar 27 5:20 AM, Rishon LeZion, Weather by CustomWeather, © 2015

Note: Actual official high and low records may vary slightly from our data, if they occured in-between our weather recording intervals... More about our weather records

Advertising

Rishon LeZion weather history for previous 24 hours

 ConditionsComfort  
Time TempWeatherWind HumidityBarometerVisibility
5:20 AM
Fri, Mar 27
72 °FClear.9 mph27%29.92 "Hg10 mi
4:50 AM68 °FClear.8 mph35%29.92 "Hg10 mi
4:20 AM59 °FClear.1 mph77%29.92 "Hg10 mi
3:50 AM59 °FClear.3 mph72%29.95 "Hg10 mi
3:20 AM61 °FClear.1 mph68%29.95 "Hg10 mi
1:50 AM61 °FClear.1 mph68%29.95 "Hg10 mi
1:20 AM61 °FClear.1 mph68%29.95 "Hg10 mi
12:50 AM61 °FClear.2 mph68%29.98 "Hg10 mi
12:20 AM61 °FClear.3 mph68%29.98 "Hg10 mi
11:50 PM
Thu, Mar 26
61 °FClear.5 mph68%29.98 "Hg10 mi
11:20 PM63 °FClear.1 mph68%30.01 "Hg10 mi
10:50 PM63 °FClear.1 mph68%30.01 "Hg10 mi
10:20 PM63 °FClear.1 mph68%30.01 "Hg10 mi
9:50 PM64 °FClear.1 mph64%30.01 "Hg10 mi
9:20 PM64 °FClear.3 mph68%30.01 "Hg10 mi
8:50 PM64 °FClear.2 mph68%30.01 "Hg10 mi
8:20 PM66 °FClear.3 mph64%30.01 "Hg10 mi
7:50 PM66 °FClear.3 mph60%30.01 "Hg10 mi
7:20 PM64 °FClear.2 mph64%30.01 "Hg10 mi
6:50 PM68 °FClear.3 mph56%30.01 "Hg10 mi
6:20 PM68 °FClear.3 mph56%30.01 "Hg10 mi
5:50 PM70 °FSunny.6 mph53%30.01 "Hg10 mi
5:20 PM72 °FSunny.6 mph47%30.01 "Hg10 mi
4:50 PM72 °FSunny.8 mph50%30.01 "Hg10 mi
4:20 PM72 °FSunny.10 mph50%30.01 "Hg10 mi
3:50 PM75 °FSunny.12 mph39%30.01 "Hg10 mi
3:20 PM75 °FSunny.13 mph39%30.01 "Hg10 mi
2:50 PM75 °FSunny.13 mph39%30.01 "Hg10 mi
2:20 PM75 °FSunny.12 mph41%30.01 "Hg10 mi
1:50 PM77 °FSunny.14 mph32%30.01 "Hg10 mi
1:20 PM77 °FSunny.12 mph32%30.01 "Hg10 mi
12:50 PM77 °FSunny.9 mph32%30.04 "Hg10 mi
12:20 PM77 °FPassing clouds.8 mph32%30.04 "HgN/A
11:50 AM75 °FPassing clouds.7 mph34%30.04 "HgN/A
11:20 AM75 °FPassing clouds.8 mph36%30.07 "HgN/A
10:50 AM75 °FSunny.3 mph34%30.07 "Hg10 mi
10:20 AM73 °FSunny.3 mph36%30.07 "Hg10 mi
9:50 AM72 °FSunny.3 mph41%30.07 "Hg10 mi
9:20 AM68 °FPassing clouds.5 mph46%30.07 "HgN/A
8:50 AM66 °FSunny.2 mph43%30.07 "Hg10 mi
8:20 AM64 °FSunny.No wind49%30.04 "Hg10 mi
7:50 AM63 °FSunny.1 mph52%30.04 "Hg10 mi
7:20 AM59 °FSunny.1 mph55%30.04 "Hg10 mi
6:50 AM55 °FSunny.2 mph63%30.04 "Hg10 mi
6:20 AM54 °FSunny.2 mph67%30.04 "Hg10 mi
Weather by CustomWeather, © 2015

See weather overviewHow to use our weather pages